Theta_e
322 322 323 323 324 323 322 323 322 322 324 322 320 321 325 332 324 316 334 348 331 332 348 347 344 345 338 333 331 328 328 330 332 334 335 337 338 340 341 341 342 343 343 344 345 344 346 346 346 347 348 349 350 350 351 351 352 353 353 354 354 354 355 355 354 354 354 354 354 353 353 352 351 351 350 349 345 340 337 337 339 340 341 344 346 348 349
321 321 323 324 324 323 321 323 324 323 324 323 321 323 325 328 324 322 336 342 334 333 339 339 339 336 330 327 327 326 328 330 332 333 334 336 338 340 341 340 342 342 343 344 344 345 346 346 347 348 348 349 350 350 351 352 352 353 353 354 354 354 354 354 354 354 355 354 354 354 354 353 352 352 351 351 349 344 338 337 338 340 341 343 345 347 348
322 321 323 324 323 323 322 322 324 323 323 323 322 323 324 325 324 325 332 337 335 334 337 337 331 324 325 330 331 330 331 332 334 335 334 336 338 339 341 341 341 342 343 344 344 345 346 345 347 348 347 348 350 350 351 352 352 353 354 354 354 354 354 354 355 355 355 355 355 354 354 354 354 353 353 352 351 348 343 339 338 339 341 343 345 347 347
322 321 322 322 322 324 322 321 323 323 322 322 322 322 324 324 324 325 327 327 330 335 337 335 331 330 334 340 335 331 331 333 336 336 336 337 338 339 341 341 342 342 343 344 345 345 346 346 347 347 347 348 350 351 352 351 352 353 354 354 354 354 354 355 356 356 356 356 355 354 354 355 354 354 354 353 353 351 348 343 338 337 339 342 344 345 346
322 320 320 321 323 325 322 321 323 323 323 324 322 324 327 325 325 325 323 322 328 333 332 330 333 334 335 336 329 326 330 335 337 339 338 337 337 339 341 342 342 343 343 343 344 345 345 346 347 346 347 348 349 350 351 351 353 354 354 354 354 354 355 356 356 356 356 356 356 355 355 355 355 356 356 354 353 352 350 346 341 338 338 340 342 344 345
321 319 319 324 327 325 323 325 326 324 325 325 323 323 325 324 326 326 324 325 328 329 329 331 332 332 333 334 332 331 334 334 336 339 341 340 340 339 339 341 342 343 343 344 344 345 345 345 346 347 348 348 348 348 350 352 354 354 354 354 354 354 355 356 356 356 357 357 356 356 356 356 357 357 356 356 354 353 352 350 345 339 337 339 340 341 343
320 320 322 328 333 331 328 331 332 326 323 325 326 329 331 329 329 328 329 330 329 329 332 330 328 333 337 339 341 342 341 338 337 340 342 343 343 341 339 340 341 342 343 344 344 345 345 346 346 347 348 348 348 348 350 352 353 353 353 353 353 354 354 355 356 356 357 357 357 357 358 357 358 357 357 357 355 354 354 351 346 341 338 338 337 339 340
321 323 326 330 334 332 329 333 336 335 333 329 326 330 339 344 342 337 335 335 337 340 335 327 328 337 340 341 343 345 345 344 341 341 343 344 344 343 342 341 341 341 342 342 343 344 344 346 347 347 348 347 348 348 349 351 351 351 352 351 352 353 353 354 356 356 356 357 357 358 358 359 359 358 358 357 356 356 354 351 349 347 343 339 336 337 339
321 323 326 328 328 328 331 337 337 336 337 335 330 330 340 351 351 345 341 343 352 351 336 328 332 337 340 345 347 345 345 346 342 341 343 342 341 342 343 343 344 344 343 343 343 344 344 345 346 346 347 347 347 349 349 350 351 351 351 351 351 352 353 354 355 356 357 357 358 358 359 359 359 358 358 357 357 356 355 353 352 349 345 340 337 337 338
323 324 328 329 327 330 336 337 333 332 334 334 332 333 339 352 352 347 346 347 354 351 338 331 333 337 346 358 354 345 344 344 340 340 342 341 340 340 339 341 344 345 345 345 345 345 345 346 346 346 346 347 347 348 348 349 350 351 351 351 351 352 353 353 354 355 356 357 358 359 359 359 359 358 358 358 357 356 355 354 352 348 345 343 339 337 338
324 329 333 332 330 335 339 335 332 332 332 334 334 331 336 351 353 348 349 352 355 351 339 332 335 342 354 365 358 348 345 344 340 338 338 338 340 340 339 340 341 341 344 346 346 347 347 346 347 347 347 347 347 347 348 349 350 351 351 350 351 351 351 351 352 355 356 358 358 359 359 359 359 358 358 358 358 357 356 354 352 350 349 347 343 340 339
327 332 335 333 334 339 338 332 332 334 333 335 332 327 335 349 350 346 349 354 357 350 339 339 350 356 356 360 357 349 344 342 340 338 336 335 336 338 339 340 340 340 342 344 346 348 347 346 347 348 348 349 348 348 348 348 349 349 348 347 347 348 350 351 353 355 357 358 358 358 358 359 359 358 358 358 358 358 357 356 355 354 353 351 347 344 342
334 335 334 333 335 338 336 331 332 334 334 332 326 329 340 347 346 345 346 346 348 345 341 347 358 356 350 350 349 344 341 339 337 335 335 335 334 335 336 337 337 337 339 342 345 347 347 348 348 348 349 349 349 349 349 349 347 343 341 342 345 348 350 352 354 355 356 357 358 358 357 358 359 359 359 359 358 358 358 357 357 356 355 353 351 349 347
336 337 337 334 334 334 333 332 332 334 337 334 331 336 343 344 344 346 346 344 345 346 344 346 348 346 345 346 345 341 339 337 334 332 332 331 331 332 333 333 333 332 334 338 341 343 345 347 347 348 348 348 348 349 350 349 344 338 339 341 344 348 351 352 354 356 357 357 358 358 357 358 359 359 359 359 359 359 358 358 358 357 356 355 354 353 351
335 336 335 334 336 336 332 332 333 335 338 337 334 336 342 344 344 345 344 344 344 344 343 343 343 344 344 343 342 341 339 336 334 332 330 330 330 331 330 331 331 330 331 334 336 338 341 343 345 348 349 350 350 349 349 347 343 341 343 344 346 349 352 353 355 356 356 357 358 358 358 358 358 359 359 359 360 359 359 359 358 357 357 356 356 355 354
336 336 334 333 336 335 331 331 334 333 333 331 330 334 339 340 341 341 341 341 342 342 343 342 341 341 341 341 342 341 340 339 337 335 333 331 330 330 330 331 330 329 330 331 331 333 335 338 342 345 347 351 352 351 350 348 346 346 347 347 349 351 352 354 356 356 356 357 357 358 359 358 359 360 360 360 360 360 360 359 359 358 358 357 356 356 356
335 337 336 334 334 332 329 330 332 331 330 329 328 330 332 332 334 337 338 337 338 340 340 339 338 338 339 340 341 341 341 341 340 339 338 336 334 332 332 333 333 332 333 332 332 332 332 334 339 342 345 349 351 351 349 349 350 351 350 349 350 352 353 355 356 356 356 356 356 357 358 359 359 360 360 361 361 360 360 360 359 359 358 358 358 357 356
334 334 334 333 332 330 328 329 329 329 329 331 331 329 328 328 330 333 334 334 335 337 338 338 337 336 338 340 340 341 342 342 340 340 340 339 338 337 335 334 335 335 336 336 336 336 335 335 337 340 344 347 347 346 348 352 354 354 354 354 352 351 352 354 354 354 355 356 356 357 357 359 360 361 361 361 361 360 360 360 359 359 358 358 357 357 357
332 333 333 333 331 329 328 328 328 328 329 332 333 331 329 329 330 330 331 332 334 336 337 338 338 337 339 340 340 340 341 341 341 342 341 341 341 341 340 339 337 337 337 338 338 339 340 342 342 343 345 348 348 346 347 352 355 355 356 358 356 354 354 354 354 355 355 355 356 356 356 358 360 360 361 362 361 361 361 360 360 359 358 358 358 358 358
333 333 333 332 330 327 326 328 328 327 328 331 332 331 331 331 329 329 330 331 333 335 336 337 337 338 339 339 340 340 340 341 341 342 342 343 343 343 344 343 342 341 341 341 341 341 341 343 345 346 347 351 355 356 354 354 356 357 357 358 359 359 359 357 356 357 357 357 357 357 357 358 359 360 361 362 362 362 360 360 361 359 358 359 359 358 358
334 333 332 331 330 329 327 326 327 327 327 329 329 328 329 328 327 327 329 330 332 333 333 335 337 339 339 340 340 341 341 341 341 342 343 344 344 343 343 343 344 345 345 344 344 344 342 342 343 344 345 348 354 359 361 361 361 360 359 358 359 360 360 360 360 359 358 358 357 356 356 357 358 359 360 360 361 362 361 360 360 359 360 360 359 358 358
334 334 332 331 333 333 329 325 325 326 327 327 326 326 326 326 325 325 327 328 329 330 332 334 337 338 339 340 341 342 343 343 343 343 343 343 343 343 342 342 342 344 344 345 345 345 345 344 344 345 347 349 352 355 358 361 362 362 361 361 360 360 360 360 360 359 359 359 358 357 357 357 357 359 360 361 362 362 361 361 360 359 360 360 357 356 357
335 333 330 330 332 332 328 325 324 324 325 326 325 325 325 325 324 324 325 326 327 328 329 332 336 338 339 340 342 343 343 343 343 344 344 344 345 345 344 343 343 344 344 345 346 347 348 347 347 347 348 349 350 352 354 356 359 361 362 362 361 361 361 360 360 361 359 358 357 356 356 356 356 358 360 362 363 362 361 361 360 359 360 359 356 356 357
332 331 328 329 331 329 326 325 325 323 323 324 323 323 323 324 324 325 325 324 324 324 325 328 332 336 338 340 341 342 342 343 344 345 345 346 346 346 346 346 345 346 346 347 347 348 349 349 350 350 349 349 350 351 351 353 356 358 360 361 361 362 362 362 362 361 360 359 358 358 358 358 358 358 359 360 361 361 359 358 359 360 359 358 357 357 357
328 329 329 330 331 328 325 325 325 323 322 322 323 323 324 323 324 324 324 323 322 321 321 323 327 331 336 339 340 340 341 342 343 344 345 346 346 346 347 347 346 346 346 346 347 349 349 350 350 350 351 352 351 351 351 352 353 355 358 359 359 361 362 362 363 362 360 360 359 358 358 357 355 357 360 359 358 358 356 354 355 357 356 355 355 354 353
326 327 328 329 329 327 325 325 324 323 322 322 322 323 323 322 322 323 324 323 322 320 319 320 321 324 329 334 337 338 339 340 342 343 344 345 345 345 346 346 346 346 345 345 346 347 349 350 349 349 349 351 351 351 352 353 353 354 356 356 358 359 357 354 356 359 360 359 357 356 356 353 349 350 355 358 358 358 356 353 353 353 352 353 352 349 346
324 325 327 328 328 326 325 325 325 323 323 322 321 321 321 321 320 321 321 322 322 321 321 321 320 321 323 327 331 333 334 336 340 341 342 343 344 344 344 345 346 346 345 345 346 346 347 347 347 346 347 348 348 347 348 349 350 352 353 354 355 353 348 344 345 350 352 351 351 352 352 347 342 342 349 355 355 353 353 352 352 351 350 350 348 343 339
325 325 327 328 327 325 324 324 324 323 323 323 321 321 321 320 319 318 318 319 319 319 320 320 320 320 319 320 322 323 325 330 335 338 340 342 342 342 342 344 345 345 344 344 346 347 346 346 346 346 346 346 346 345 345 345 346 346 348 349 349 347 344 341 340 342 343 343 346 350 350 346 343 343 349 353 351 348 349 350 349 349 347 345 341 338 335
326 327 328 329 327 325 323 323 323 323 324 324 323 321 320 319 319 321 322 322 321 320 321 320 320 319 319 319 318 317 318 321 325 327 332 337 340 342 342 342 343 344 344 345 347 347 347 346 347 347 346 346 346 346 346 346 346 345 344 344 344 344 342 338 338 340 341 342 346 350 351 349 349 349 350 349 347 346 346 345 344 344 342 338 335 334 332
326 326 327 326 324 323 322 322 322 323 323 322 322 320 319 321 323 325 326 326 325 324 324 323 322 321 320 319 319 318 317 318 318 319 323 329 335 339 341 341 341 341 342 344 346 346 347 347 347 347 347 347 348 348 347 347 347 346 343 341 341 342 341 339 340 343 345 345 346 347 348 348 349 348 346 345 344 343 340 339 340 340 336 333 332 332 331
324 324 324 323 322 321 321 320 320 320 319 319 318 319 320 323 325 326 326 327 326 326 326 326 325 323 321 320 321 322 321 319 318 318 320 325 330 334 337 339 340 339 340 341 342 344 345 346 346 346 346 347 347 348 348 347 347 346 344 343 342 342 343 344 345 345 346 346 346 345 345 345 345 344 342 341 341 340 339 338 338 336 333 332 333 332 330
324 324 324 323 322 321 321 321 320 320 320 319 318 319 322 324 325 326 326 326 326 327 328 327 326 325 322 321 322 323 325 325 324 322 321 323 326 329 332 335 336 338 339 340 340 341 342 342 343 344 345 345 345 345 345 346 347 347 345 345 344 344 345 346 347 347 347 346 345 342 340 340 341 342 341 340 340 340 339 338 336 333 332 333 333 332 330
324 324 325 324 324 323 323 323 323 323 322 321 321 322 324 325 325 325 325 325 326 327 329 329 328 327 325 324 322 322 324 327 328 327 326 326 326 326 328 331 332 334 336 338 339 340 340 339 340 341 341 342 343 343 343 344 345 343 341 341 342 341 341 341 343 346 348 347 344 341 340 341 342 342 342 342 342 339 337 336 336 334 333 333 333 332 333
324 324 325 324 324 324 324 324 325 325 325 324 324 324 324 324 325 325 325 325 326 328 329 330 330 330 329 329 326 323 321 322 324 325 325 326 325 324 325 326 327 328 330 333 335 336 337 337 338 339 339 338 339 340 340 340 339 338 338 339 339 339 339 339 338 340 343 345 343 342 341 341 340 338 337 339 339 336 334 335 336 334 334 335 335 334 335
324 324 325 325 324 325 325 325 326 326 326 326 326 326 325 325 325 325 325 326 327 328 329 330 331 331 331 331 329 326 323 322 323 324 325 325 325 323 322 323 325 325 327 330 333 334 335 335 336 338 339 338 337 337 337 337 336 337 340 341 341 341 341 341 339 338 339 340 341 342 341 341 339 337 337 338 337 335 334 336 336 335 336 336 336 335 335
323 324 325 325 325 325 326 326 326 326 326 327 327 327 327 327 327 327 327 328 329 329 329 330 331 331 331 331 330 328 326 326 327 328 330 330 328 325 323 324 325 326 327 330 332 334 335 335 335 336 338 338 338 338 338 337 337 339 341 342 342 342 342 342 342 340 339 339 339 339 340 340 340 339 338 338 337 337 337 337 336 336 337 336 335 335 335
323 323 324 324 325 326 326 326 326 326 327 327 327 328 328 328 328 329 329 329 329 329 329 329 329 329 329 330 329 329 329 329 329 329 330 330 328 326 325 326 327 328 328 330 332 334 334 334 334 335 335 336 338 338 338 338 339 339 340 340 341 341 341 341 341 340 340 340 339 338 339 340 340 340 339 338 338 338 338 337 336 336 335 335 335 335 333
322 323 323 323 324 325 325 325 325 326 326 327 327 327 327 328 328 328 328 328 329 329 328 328 328 328 328 328 328 328 328 328 328 328 329 329 328 328 329 329 328 327 327 328 331 332 333 333 334 334 334 335 336 336 336 336 337 337 338 339 340 340 340 341 340 340 340 340 340 340 340 340 340 339 339 338 338 338 338 337 337 336 336 335 334 332 330
322 323 323 323 323 323 323 323 324 324 325 325 326 326 326 327 327 327 327 327 327 327 327 326 326 326 325 325 326 325 325 324 323 324 324 325 326 327 328 328 328 327 326 327 328 329 330 331 332 333 333 333 333 334 334 335 335 335 336 337 338 338 339 339 339 340 340 340 340 340 340 340 339 339 339 338 338 338 336 334 333 333 333 332 331 330 329
321 322 322 322 322 322 322 322 323 323 324 324 324 325 325 326 326 326 326 326 325 325 325 323 322 321 321 322 323 323 322 321 319 319 319 319 320 321 322 324 325 326 326 326 326 327 328 328 329 330 330 331 331 332 332 332 333 334 334 333 334 336 337 337 337 338 339 340 339 339 339 338 338 338 339 338 338 337 336 333 331 331 331 331 331 331 330
320 320 320 320 320 320 320 320 321 321 322 322 323 323 324 324 324 324 325 325 324 323 322 319 317 318 319 320 321 321 320 319 318 318 317 316 316 316 317 318 319 321 322 323 323 324 326 327 327 327 328 328 329 329 330 329 330 331 332 331 331 333 334 334 334 335 336 336 337 338 338 338 337 338 338 338 338 338 336 334 331 331 332 331 330 329 327
319 319 319 319 319 319 319 319 319 319 320 321 322 322 323 323 322 323 323 323 322 320 319 318 318 318 318 318 319 320 320 319 319 319 319 318 318 318 318 317 316 317 319 320 320 320 322 324 325 326 326 327 327 327 328 328 328 329 329 329 329 330 329 329 330 332 332 332 332 333 334 335 336 338 338 337 337 336 335 332 330 329 330 330 329 328 328
317 317 317 318 318 318 319 319 319 318 319 319 319 319 320 320 320 319 320 320 320 319 319 319 319 318 318 318 318 319 319 319 319 319 319 320 320 320 319 318 317 316 317 317 317 317 318 320 321 323 324 326 326 326 326 327 327 327 327 327 327 327 327 327 328 329 329 328 328 328 329 330 333 334 333 333 333 333 332 330 328 328 329 329 328 328 328
316 316 316 316 317 318 318 318 317 317 317 317 317 316 317 317 317 317 318 319 320 320 319 319 318 317 316 317 317 318 318 318 318 318 318 318 320 320 320 319 317 317 316 316 316 316 317 317 318 319 321 322 322 323 323 324 325 325 326 326 326 326 326 326 327 327 326 326 326 327 327 328 328 328 328 328 329 329 329 329 328 328 328 328 327 326 326
315 315 315 316 316 317 316 316 315 315 315 316 316 316 316 315 316 316 317 317 318 317 317 317 316 315 315 315 316 316 317 317 317 317 318 318 319 320 320 319 319 318 317 317 317 317 317 316 317 317 318 319 319 319 319 320 321 323 325 326 325 325 326 326 326 326 326 326 326 326 326 327 327 327 326 326 327 327 327 328 328 328 327 327 327 327 326
315 315 315 315 315 315 315 315 315 315 315 315 315 316 316 316 315 316 316 316 315 315 315 315 315 315 315 315 315 315 315 316 316 317 318 318 318 318 319 319 319 318 318 317 318 318 318 317 316 316 317 317 318 318 317 318 319 320 322 323 323 324 324 325 326 325 325 325 326 326 325 325 326 326 326 326 327 327 327 327 327 327 327 326 326 325 325
313 314 314 314 314 314 315 315 315 315 315 314 315 315 316 316 316 316 315 315 315 315 315 315 315 315 315 315 315 315 315 315 315 316 316 317 317 317 317 317 318 318 318 318 318 318 318 318 317 317 317 316 317 317 318 317 317 317 318 318 319 320 321 322 323 323 322 322 323 323 323 323 324 325 325 326 326 326 326 326 326 325 324 323 323 322 322
311 311 311 312 312 313 314 314 314 313 313 314 314 315 314 315 315 315 315 315 315 315 315 315 315 315 315 315 315 314 314 314 314 314 314 315 315 315 316 316 316 316 316 317 317 317 317 318 318 318 318 317 317 317 317 318 318 317 317 317 317 317 318 319 319 319 319 318 318 319 319 321 322 322 322 323 323 323 323 322 322 322 321 321 320 320 319
310 309 310 310 310 311 311 311 311 311 311 312 313 314 314 314 314 314 314 314 314 314 314 314 313 313 313 313 313 313 313 313 313 313 313 314 314 314 314 315 315 315 315 315 315 315 315 316 316 317 317 317 317 317 317 318 318 318 318 317 317 317 316 316 317 317 317 317 317 317 317 318 319 319 319 319 319 319 319 319 320 320 320 320 319 319 318
308 308 308 308 308 308 308 309 309 310 310 311 312 313 313 313 313 312 312 312 312 312 312 311 311 310 310 310 311 311 311 311 311 311 311 311 311 311 311 312 312 312 313 313 313 313 314 314 314 315 315 316 316 317 317 317 318 318 317 318 317 317 317 316 316 316 316 316 316 316 316 316 317 317 317 316 316 316 316 317 317 317 317 317 316 316 316
306 306 307 307 307 307 307 307 308 309 310 311 312 313 313 313 312 311 310 310 310 310 309 309 308 308 308 308 308 308 308 308 309 309 309 309 309 309 309 309 309 309 309 310 310 311 311 312 313 313 313 314 314 314 315 315 316 316 317 317 317 317 317 317 317 317 316 316 316 316 315 315 315 315 315 315 315 315 315 315 315 314 314 314 314 314 314
306 306 306 306 306 306 306 306 307 307 309 311 312 313 312 312 311 310 309 309 308 308 307 307 306 306 306 306 306 306 306 306 307 306 306 306 306 306 306 306 306 306 306 307 307 307 308 309 310 311 311 312 312 312 313 313 313 314 314 315 315 316 316 317 317 317 317 316 316 316 315 315 315 315 315 314 314 314 314 314 314 314 313 313 313 313 313
Wind_Speed
13 11 13 14 13 13 13 14 17 17 14 16 19 17 11 11 11 13 9 10 10 8 8 9 9 9 10 11 10 10 13 18 24 28 29 29 32 34 35 38 41 42 45 48 50 51 53 53 53 53 53 54 54 55 55 54 55 55 55 55 55 55 55 56 55 54 52 50 48 45 44 43 44 44 44 44 43 42 42 41 40 40 40 41 41 41 41
15 13 13 12 10 11 12 13 17 18 17 18 19 18 14 14 16 12 8 11 11 9 10 10 11 14 14 10 8 10 15 18 21 25 28 30 33 35 37 40 42 43 46 49 51 51 51 52 52 53 53 54 54 55 55 54 54 55 54 54 55 55 55 56 55 54 53 51 49 47 46 45 44 45 45 44 44 44 43 42 40 40 40 41 42 42 42
12 12 11 11 12 11 12 14 14 17 19 20 20 18 13 12 13 10 7 9 9 8 8 9 12 15 13 8 6 11 17 18 18 21 26 30 34 36 39 42 44 44 46 48 49 49 51 52 52 53 55 55 55 55 54 54 54 54 53 54 54 55 55 55 54 54 53 52 51 49 48 46 46 45 45 45 45 44 44 43 41 40 40 42 43 43 43
8 8 10 15 18 14 10 13 16 17 18 17 16 14 12 12 12 10 8 8 7 8 8 7 9 9 8 7 8 12 16 15 16 20 25 29 34 37 39 41 44 45 46 48 49 50 52 53 53 54 55 54 54 53 53 54 54 52 52 53 53 54 54 54 53 53 53 53 52 50 49 48 47 47 46 46 45 45 45 45 42 41 41 42 42 42 43
7 10 12 14 15 10 9 14 17 17 14 13 13 11 11 13 13 11 11 11 9 9 8 6 7 9 9 9 8 9 13 13 14 20 24 27 32 36 38 38 41 43 45 48 51 52 53 54 54 54 55 55 54 54 54 54 52 51 51 52 53 53 53 53 53 53 53 52 52 51 50 49 48 48 47 47 46 46 45 45 44 43 43 42 42 42 43
7 12 13 11 7 6 10 9 10 14 14 12 11 10 10 12 11 8 8 10 11 10 8 9 10 9 5 2 2 2 5 9 13 18 20 22 26 29 32 34 37 41 43 44 47 50 52 54 55 55 54 54 54 53 53 52 51 51 51 52 52 52 52 53 53 52 52 52 52 52 51 49 49 49 49 48 47 46 45 45 45 45 44 44 42 42 43
6 9 8 6 4 7 8 7 1 10 14 12 11 10 9 11 12 8 6 8 11 11 8 7 7 8 11 13 15 14 9 3 4 10 13 15 18 21 25 29 33 38 40 41 44 47 49 51 53 53 52 52 51 52 52 51 51 52 51 51 52 52 52 53 53 52 53 53 52 52 51 50 50 50 49 48 48 47 46 46 46 46 46 44 42 42 42
4 4 3 4 6 10 12 9 7 6 3 4 7 8 7 6 8 8 8 9 10 8 7 8 13 17 16 15 16 17 15 13 9 3 3 5 8 13 19 25 30 34 38 41 43 45 48 49 50 50 50 50 50 51 51 51 51 52 51 51 51 51 52 53 54 54 53 53 52 52 51 51 51 51 50 49 49 48 47 47 47 47 46 44 43 43 42
3 3 4 5 8 13 11 4 6 8 4 4 5 6 7 5 5 7 8 9 8 6 7 14 21 18 10 8 10 14 16 15 14 12 8 5 2 4 9 15 21 25 30 35 39 41 44 46 47 47 47 47 47 49 50 51 51 51 51 51 51 51 52 53 54 54 54 53 52 52 51 51 51 51 51 50 49 48 48 48 48 48 47 45 44 43 43
4 4 5 4 5 6 3 3 9 9 7 9 7 4 6 5 3 3 7 9 8 8 10 15 19 13 7 3 4 11 15 14 14 15 14 12 9 4 1 6 12 17 21 26 31 35 38 41 42 43 44 44 45 47 49 49 50 50 50 50 51 51 52 52 53 54 53 53 52 52 52 52 52 51 51 50 50 49 49 49 48 48 47 45 44 44 44
4 4 4 3 4 5 3 8 15 17 17 13 4 2 5 6 5 3 3 5 5 7 11 13 12 8 5 3 5 9 13 14 14 14 13 14 14 11 7 3 2 8 15 19 23 27 32 37 40 41 41 42 44 46 47 47 47 48 49 50 50 50 51 51 52 53 53 53 52 52 53 53 52 51 51 50 49 49 49 48 48 47 46 45 45 45 44
6 4 3 3 4 4 5 12 17 23 24 11 3 5 6 5 6 6 5 4 3 6 9 9 6 4 5 6 3 6 9 11 13 14 14 13 12 11 10 8 7 4 5 11 17 23 29 34 37 39 41 43 44 46 46 46 47 47 47 46 47 49 50 50 51 52 52 52 52 52 53 54 53 52 51 50 50 49 48 48 47 47 46 45 46 45 43
6 4 2 3 4 4 8 15 21 26 21 4 8 7 6 4 5 6 8 7 7 10 10 8 6 5 7 8 4 6 9 11 12 13 13 12 11 11 10 8 7 8 7 4 7 15 24 30 33 34 37 40 43 45 45 45 46 45 43 44 46 48 49 50 51 52 52 53 53 52 53 53 53 52 51 51 50 49 48 47 47 47 46 46 45 44 42
3 3 2 3 4 2 12 20 23 21 9 4 4 9 11 7 4 7 12 13 17 21 20 17 16 13 12 12 10 11 12 12 12 12 11 10 8 7 7 7 7 7 7 6 5 4 11 20 27 30 32 35 38 41 44 46 45 43 42 44 47 48 49 49 50 51 52 53 53 52 52 53 53 53 52 51 50 49 48 47 47 46 46 46 45 43 42
1 2 1 3 6 3 16 20 16 10 6 3 8 13 12 7 5 7 12 15 20 26 26 23 21 19 16 14 13 13 12 11 11 12 11 11 9 7 6 6 7 8 8 8 7 8 7 8 14 20 27 32 35 38 42 45 46 44 44 45 47 47 48 49 50 50 51 52 52 52 53 53 54 54 53 52 50 49 48 47 46 46 46 46 45 44 42
2 4 4 3 4 4 13 13 7 5 10 14 14 11 9 10 8 6 12 15 19 25 28 25 21 19 17 16 14 13 13 12 12 11 11 10 10 8 8 7 7 8 8 8 9 9 10 10 10 12 16 22 29 34 39 42 44 45 46 46 47 48 48 49 50 51 52 52 52 52 53 54 54 54 53 52 51 49 49 48 47 47 47 46 44 43 41
1 2 3 3 2 3 9 9 9 11 15 21 22 19 16 17 14 8 12 14 16 21 25 24 22 20 18 18 16 15 14 14 13 13 12 12 11 10 9 8 8 8 8 8 9 10 11 12 12 12 13 15 20 26 32 36 40 43 45 47 48 49 49 51 51 51 52 52 52 52 53 54 54 54 52 51 51 50 50 49 48 47 46 45 42 41 39
3 1 0 3 4 3 8 11 12 14 17 21 23 22 21 21 16 10 12 13 15 17 19 22 23 20 19 18 18 16 15 15 14 13 12 12 12 12 11 10 9 9 9 9 10 11 12 13 14 14 15 15 17 19 23 29 36 40 43 46 48 49 50 51 51 51 52 52 53 53 53 54 54 54 52 51 51 51 50 49 47 46 45 43 41 40 37
3 1 2 3 5 5 6 11 14 15 17 18 17 17 18 18 16 11 12 15 17 18 18 21 22 20 18 17 17 16 16 15 14 14 13 12 11 11 12 12 11 11 10 11 12 12 13 14 15 16 18 18 19 19 20 24 31 37 41 45 47 49 50 51 51 52 52 53 55 55 54 54 53 53 53 53 54 53 52 50 50 49 48 47 45 41 36
4 2 1 2 8 8 4 8 11 11 13 12 9 10 10 11 11 9 9 13 18 20 20 20 20 19 18 17 16 17 16 16 15 14 13 12 12 11 11 11 12 13 13 13 13 14 15 15 15 17 19 20 22 22 22 24 28 33 39 44 46 48 48 49 49 50 51 52 54 54 53 53 53 55 55 55 56 56 55 54 55 53 51 49 44 38 35
2 2 2 4 7 7 6 8 10 6 5 5 3 2 5 6 5 4 6 12 17 20 21 20 20 21 20 18 17 16 15 14 14 13 12 12 12 12 11 11 11 12 13 13 13 14 15 15 16 18 20 21 22 23 24 26 29 33 37 41 44 46 46 46 48 50 51 52 53 52 51 52 52 54 56 56 58 58 56 56 57 56 53 49 41 34 35
3 2 5 7 5 3 4 7 10 9 7 6 7 7 8 7 4 2 7 13 17 20 21 21 21 23 23 20 18 17 16 14 13 11 10 11 11 11 12 11 11 12 12 13 14 15 15 15 16 17 20 22 23 23 23 25 29 33 36 39 41 44 45 46 48 49 50 51 52 52 53 54 54 54 54 55 57 58 58 58 56 53 50 44 37 35 37
4 5 9 10 6 5 8 10 12 12 11 8 7 7 8 8 5 4 7 14 19 21 22 22 22 24 24 22 19 19 18 15 13 11 10 10 11 11 11 11 11 12 12 12 13 14 16 17 17 17 18 20 21 22 21 22 25 30 34 38 41 44 45 47 48 49 50 51 52 54 56 57 57 57 55 54 54 54 56 57 52 46 42 38 33 32 33
1 6 10 9 6 8 12 14 15 15 14 13 11 10 8 6 6 6 9 15 19 21 22 23 22 23 23 22 21 21 19 16 14 13 12 11 10 10 10 11 12 12 11 12 12 13 14 16 18 18 18 17 18 19 19 20 22 24 28 33 38 43 46 48 49 49 49 51 51 52 52 53 56 59 59 56 55 53 50 49 47 45 42 37 31 27 27
5 3 5 4 6 11 15 14 14 14 14 14 14 12 9 7 6 8 12 15 18 19 21 21 22 21 22 22 21 20 19 18 16 14 13 12 12 12 12 13 12 11 10 10 9 9 11 12 13 15 17 17 18 19 20 21 22 23 25 28 32 36 40 44 47 47 46 46 46 46 45 44 48 57 62 60 58 55 49 43 40 38 35 31 27 25 25
11 7 5 4 8 13 15 13 11 12 12 12 12 12 10 7 6 9 13 15 17 18 18 19 20 19 20 20 20 19 19 18 16 14 13 13 13 14 14 13 12 10 10 8 7 7 8 8 9 11 13 14 15 17 18 20 21 23 25 28 31 33 32 32 37 42 44 41 40 41 40 36 36 47 59 62 60 58 53 45 38 35 33 29 27 27 26
12 11 8 5 9 13 14 13 11 11 11 10 10 10 8 7 8 10 13 15 16 17 18 18 18 18 18 18 17 18 18 17 16 14 13 13 14 14 13 11 9 9 10 9 7 5 5 7 8 9 9 11 12 14 15 16 18 20 23 26 30 30 25 18 18 24 29 28 25 23 23 25 28 36 54 60 56 52 50 47 44 41 36 31 30 30 29
8 9 11 10 10 13 14 13 12 12 10 9 9 8 7 7 9 11 13 14 14 15 16 16 16 17 18 18 17 17 16 16 17 18 17 14 12 12 12 11 10 9 9 10 10 9 7 4 4 5 6 8 9 10 11 12 14 17 21 24 24 24 22 14 8 6 8 13 15 17 18 22 30 40 53 56 49 42 39 39 40 40 36 33 32 31 30
8 11 13 14 15 17 16 13 11 10 9 8 8 7 6 7 11 14 15 15 15 16 17 16 16 16 16 16 16 15 15 15 16 17 17 15 13 11 10 11 10 9 8 9 10 10 8 7 5 4 3 3 4 5 7 7 7 9 12 14 14 15 16 14 9 7 6 6 13 19 26 32 36 37 37 37 36 34 33 33 33 34 34 33 31 30 31
6 10 13 15 18 19 17 14 13 12 11 9 9 10 9 10 13 15 15 15 17 18 17 17 17 17 16 15 15 15 14 13 13 14 15 16 16 13 9 7 7 7 9 11 11 10 8 8 8 7 5 4 4 4 5 5 4 4 5 4 5 7 10 11 9 6 4 7 14 19 22 26 29 31 31 30 30 31 31 32 32 32 30 29 28 29 31
14 17 20 21 20 18 18 17 16 15 14 13 13 13 13 13 15 15 14 14 15 16 16 16 17 17 15 14 14 14 13 11 10 10 12 14 16 16 14 12 11 12 13 12 11 11 9 9 9 10 8 7 5 4 4 5 4 3 4 4 4 6 8 6 5 5 7 12 19 22 24 24 26 29 31 30 30 31 32 32 31 29 26 25 26 26 26
19 20 21 22 21 19 19 19 18 17 16 15 14 14 13 13 14 14 14 14 14 13 13 14 15 15 14 12 11 13 14 14 12 11 11 13 14 15 16 17 17 17 15 13 12 13 13 13 12 11 10 8 7 6 6 6 5 4 4 4 5 7 7 5 3 6 10 14 19 21 23 23 24 26 29 30 30 30 29 28 26 24 23 23 24 24 25
19 16 15 18 21 21 20 19 19 19 18 17 16 15 14 13 14 14 14 14 13 12 13 13 13 13 13 12 11 11 11 12 13 14 14 15 15 15 14 15 16 17 17 14 12 13 16 18 17 14 12 9 6 4 4 3 3 3 4 6 7 8 7 6 9 12 13 16 18 19 21 23 24 25 27 27 27 26 25 23 22 22 23 23 24 26 28
19 16 14 18 21 21 19 19 19 19 20 19 17 15 13 13 14 14 14 14 14 13 12 11 10 10 12 14 14 12 11 11 13 14 13 13 13 13 13 13 14 16 18 17 15 15 17 19 19 16 12 9 6 3 1 1 1 1 1 4 7 9 8 8 8 10 13 16 18 18 18 20 22 23 24 25 25 26 25 24 23 24 25 26 28 28 28
20 19 18 20 21 21 21 21 21 21 22 21 20 17 15 14 13 13 13 13 13 13 12 11 11 13 15 17 17 16 15 14 14 13 12 11 11 10 11 11 12 14 16 19 19 18 18 18 17 16 13 10 8 6 5 3 2 2 3 5 6 7 9 10 9 7 8 13 17 18 17 17 18 20 22 24 25 24 24 24 24 24 25 27 27 26 24
17 19 21 22 22 22 22 22 21 21 21 22 21 19 17 16 15 15 14 14 13 13 14 15 16 17 19 19 18 16 16 15 14 13 13 13 12 10 10 13 14 15 17 19 19 18 16 14 14 14 13 13 11 9 7 4 1 2 5 6 6 6 8 9 8 8 8 8 11 15 16 16 16 17 18 20 21 22 22 22 23 23 24 25 24 22 21
13 17 21 22 22 23 24 23 22 22 22 22 21 20 19 18 18 17 16 15 15 16 17 19 20 20 20 19 18 17 16 15 14 14 13 12 12 12 14 16 17 18 19 19 17 15 14 13 12 11 12 12 12 12 12 10 7 3 2 3 3 4 6 8 7 8 9 9 9 12 14 14 14 14 15 15 17 19 20 21 22 23 23 23 22 21 20
13 16 20 23 23 23 23 24 24 25 26 25 24 22 21 20 19 18 17 17 17 18 21 22 23 23 22 22 21 20 19 18 17 18 17 15 16 18 20 21 21 23 24 21 17 13 12 12 11 11 12 12 11 11 11 11 9 8 5 2 2 3 5 7 7 8 11 12 12 12 14 14 13 12 12 13 15 17 18 20 21 22 22 22 22 20 19
21 22 24 25 25 24 25 24 24 25 26 27 26 25 24 23 22 21 22 22 21 22 24 25 26 27 27 27 26 26 25 24 23 23 23 23 23 24 24 22 22 23 23 21 19 18 16 13 10 10 10 10 10 10 9 8 8 8 7 3 1 2 3 5 7 9 11 14 15 15 16 15 14 13 13 14 15 16 16 17 19 21 21 21 20 18 17
28 28 29 28 27 27 27 27 26 26 26 26 26 25 25 26 27 27 27 26 26 25 26 28 29 29 29 28 28 28 28 28 27 27 28 28 28 28 27 26 23 21 20 19 20 20 19 17 15 15 14 12 11 10 9 8 7 6 5 5 4 2 3 4 5 8 12 15 17 17 17 17 16 15 15 16 17 17 18 19 20 20 19 18 16 15 14
28 29 30 30 29 28 28 28 28 28 28 28 27 25 25 27 29 29 28 27 26 26 27 29 30 29 28 27 27 28 28 29 29 29 30 30 30 30 29 28 24 21 20 20 20 20 19 19 20 21 20 18 16 14 13 12 10 8 7 7 6 3 1 0 1 6 10 12 13 15 18 20 20 18 17 16 16 16 17 17 17 18 18 16 15 15 14
31 31 31 30 29 29 30 30 30 29 29 28 27 26 25 25 27 27 26 25 25 26 27 27 27 26 26 26 26 27 27 27 27 28 28 29 29 29 28 26 23 20 19 20 21 22 22 21 20 20 20 19 19 18 18 17 16 14 13 12 11 8 6 4 3 5 7 7 7 10 14 19 22 20 17 15 15 15 13 12 11 14 16 15 14 14 14
35 35 34 33 31 30 30 30 30 30 30 28 27 26 25 24 25 25 25 25 25 25 24 24 23 24 24 24 24 24 24 23 24 25 25 25 25 25 24 22 21 20 19 18 20 22 24 23 21 19 18 17 17 17 18 17 17 16 16 16 16 15 13 10 7 6 5 5 6 5 5 8 13 15 14 13 12 13 13 11 10 11 13 13 12 13 14
37 37 37 36 34 32 31 32 33 33 32 30 28 27 26 26 25 25 25 25 25 24 23 23 23 23 22 22 23 23 22 21 21 21 21 21 22 22 21 19 19 19 19 18 19 21 22 22 21 19 18 17 15 15 15 15 15 15 15 15 15 15 14 13 11 10 10 10 10 10 10 8 6 6 8 8 7 7 9 11 11 11 11 11 11 12 13
36 36 36 35 35 34 35 35 35 34 33 31 29 27 27 26 25 24 24 24 24 23 22 22 23 23 22 23 22 22 21 21 20 20 20 21 23 22 19 16 16 17 17 17 18 20 20 19 18 18 18 18 17 16 16 15 14 13 13 13 13 12 12 11 11 11 11 11 10 8 7 7 7 6 6 6 5 6 7 8 9 9 9 10 11 11 11
34 34 33 33 34 34 33 32 31 30 29 29 29 28 26 24 24 23 22 22 22 22 21 21 21 21 20 20 19 18 18 19 21 21 22 22 23 21 18 17 16 16 15 16 17 18 18 17 16 16 16 16 16 16 18 17 16 14 13 12 11 11 10 9 9 8 8 8 7 6 5 3 3 3 3 3 5 7 9 9 8 8 9 10 10 10 10
31 31 31 31 31 30 28 27 27 28 28 28 29 27 25 23 23 22 21 20 21 21 21 20 20 20 18 17 17 16 15 16 18 20 20 19 18 18 18 18 18 17 16 17 18 18 17 16 16 15 15 14 13 13 15 15 15 15 14 13 12 11 10 9 8 7 7 7 6 6 5 3 2 3 3 5 8 10 10 10 9 9 9 9 9 10 11
31 31 30 29 28 28 27 25 26 26 26 25 25 24 23 22 21 20 19 18 19 20 21 21 21 20 19 18 18 17 15 15 17 19 18 15 14 14 15 16 17 17 16 17 18 18 18 17 16 16 16 15 13 13 13 13 13 13 13 13 12 11 11 10 8 7 7 8 7 7 6 4 2 3 4 5 6 7 7 7 7 8 9 9 10 11 11
30 30 29 28 27 27 25 25 25 24 22 20 20 21 20 20 21 21 20 19 20 21 22 23 23 22 21 20 20 19 17 17 17 18 16 14 14 14 14 14 15 15 16 17 18 18 18 17 17 17 17 16 16 15 14 13 12 12 12 12 12 11 11 10 9 7 6 5 5 5 5 5 3 2 3 3 4 4 5 5 5 6 7 9 9 11 11
28 28 28 28 27 26 25 24 24 22 20 18 17 16 16 18 22 25 24 23 22 23 23 23 23 23 22 21 20 20 19 17 17 16 15 15 16 16 16 16 15 16 16 16 17 18 18 18 18 19 18 18 17 17 16 14 13 12 11 10 10 9 9 9 8 7 7 5 4 4 4 4 4 4 4 4 4 4 5 5 5 6 6 7 7 8 9
27 28 28 27 26 26 25 25 24 22 20 18 16 15 16 19 22 24 23 21 21 22 22 23 23 22 20 19 19 19 18 17 17 16 16 16 16 16 16 16 16 16 16 16 16 17 17 17 17 17 17 17 17 18 17 16 15 14 12 11 10 9 8 7 7 7 7 7 4 3 3 4 5 5 5 6 7 8 9 9 9 9 9 8 8 9 9
25 25 25 24 24 24 25 24 24 23 22 20 17 16 17 19 20 21 20 20 19 20 20 21 22 21 20 19 18 18 17 16 16 16 16 16 16 16 16 16 16 16 16 16 16 15 16 16 16 16 16 16 16 16 17 17 17 16 15 14 13 12 11 9 8 7 7 7 6 4 2 2 3 5 7 9 11 12 12 12 12 13 13 13 13 13 13
Wind_Direction
305 301 292 287 283 264 233 211 210 215 217 213 216 221 196 164 198 230 214 181 193 224 231 229 231 228 234 240 234 235 240 239 235 232 230 228 225 223 219 216 216 216 215 216 217 218 219 218 217 218 218 219 218 219 220 218 217 218 219 219 221 221 222 224 226 228 229 230 231 232 232 232 232 232 231 231 230 230 231 231 232 234 237 239 242 244 245
309 307 298 294 294 279 255 230 211 208 214 215 219 220 201 195 217 225 200 192 203 214 215 216 222 228 237 244 238 245 250 244 238 231 226 226 226 224 220 217 216 216 216 217 217 217 218 217 217 218 219 220 219 218 218 218 217 218 218 219 220 222 223 226 227 227 227 229 230 231 231 231 232 232 232 231 231 231 231 232 233 234 236 238 241 243 245
305 306 310 322 325 305 271 252 227 212 213 216 219 219 204 205 226 226 197 195 219 240 227 219 230 234 245 257 233 234 243 240 234 229 224 225 227 226 224 220 218 217 217 217 217 216 218 219 218 218 221 221 220 218 217 217 218 218 217 218 220 223 226 228 226 225 226 228 229 231 231 231 231 232 232 232 231 231 231 232 233 234 236 238 240 242 244
297 307 331 329 323 318 288 255 237 221 213 213 220 215 197 196 207 213 215 213 230 247 234 234 253 248 241 243 229 235 246 241 227 225 227 229 228 228 227 223 219 217 217 217 217 217 219 221 220 220 221 222 220 217 216 218 219 217 216 218 221 225 227 226 225 225 226 227 228 230 231 232 231 231 232 232 232 231 231 232 233 235 236 238 240 242 244
289 301 320 320 318 315 274 241 229 224 221 216 219 216 206 201 191 196 220 222 221 227 207 200 242 247 237 241 245 255 263 259 237 227 230 235 236 232 229 225 220 218 217 218 220 220 220 220 222 223 223 221 221 221 222 221 219 215 216 219 222 225 226 225 225 226 226 226 228 230 231 231 231 231 231 232 232 232 232 232 233 234 236 238 240 241 243
285 297 310 316 304 256 255 249 209 211 220 214 212 217 215 208 198 198 217 216 221 225 192 181 217 231 220 183 78 36 294 277 261 248 245 249 249 241 234 229 224 222 221 221 223 224 222 223 225 225 223 223 226 228 226 221 217 216 219 221 222 224 225 225 226 227 226 227 229 230 231 230 230 230 231 232 233 232 232 231 232 234 236 237 239 241 243
274 298 313 310 254 230 271 311 236 212 214 196 195 215 222 215 209 202 197 210 222 221 200 193 195 156 116 92 74 64 57 42 268 259 254 255 259 252 240 233 229 227 228 227 226 226 225 225 225 224 223 224 227 228 224 220 219 220 222 222 223 225 226 226 227 227 227 228 229 230 229 229 229 230 231 232 233 232 232 232 233 234 235 237 239 241 243
261 282 280 252 259 285 297 319 5 350 285 180 186 215 239 238 213 192 190 211 218 209 191 170 150 137 118 87 66 57 55 59 64 70 215 230 254 257 247 239 234 231 230 231 232 232 231 227 224 223 225 225 225 225 223 222 222 222 222 223 224 225 225 226 227 227 228 229 229 228 228 227 228 229 231 232 232 232 232 233 233 234 235 237 239 240 242
225 236 254 252 279 300 303 318 12 5 337 288 270 244 243 245 209 189 196 206 203 178 157 153 151 144 114 69 45 37 43 53 59 62 71 88 129 240 247 246 243 239 235 232 232 233 232 228 225 225 226 225 223 223 223 222 221 221 221 222 224 225 226 227 227 227 227 228 228 227 226 226 227 229 230 231 232 232 232 233 233 234 235 236 237 239 241
210 231 263 273 275 275 268 322 331 329 303 291 294 265 250 265 275 220 195 189 179 152 143 155 156 139 86 50 333 3 25 42 53 59 62 63 66 73 230 246 249 250 248 243 237 233 229 227 227 226 225 224 223 222 221 220 220 220 221 224 226 227 228 229 229 229 227 227 227 227 226 227 229 230 231 231 231 231 232 233 233 234 235 235 237 239 240
234 226 238 254 255 245 273 337 332 326 315 304 293 205 255 279 325 360 141 159 157 141 145 153 150 122 103 185 274 340 11 29 40 48 54 58 61 61 61 56 266 252 250 250 248 241 233 228 227 225 224 223 223 223 223 222 221 221 223 226 228 229 230 231 231 230 228 226 227 228 229 230 231 231 231 231 231 231 232 233 234 235 235 235 237 238 240
229 210 225 250 248 259 331 348 333 317 312 306 169 182 241 280 345 29 89 116 109 118 131 131 112 97 140 175 256 346 22 38 42 42 41 43 46 47 51 53 42 17 276 252 246 244 240 235 230 225 223 223 223 224 225 224 223 226 230 233 233 233 234 233 230 229 227 226 227 229 231 232 232 232 232 231 230 230 231 233 234 234 235 236 237 238 239
205 179 200 276 267 279 345 347 328 315 309 282 161 204 257 311 4 65 93 101 103 103 106 107 96 90 119 129 109 58 60 58 54 50 44 40 35 29 29 29 25 21 12 335 258 246 243 239 235 232 229 226 225 226 225 224 227 233 237 238 238 236 234 232 230 229 228 228 228 231 233 233 231 231 232 231 231 231 231 231 231 231 233 235 236 237 239
188 155 166 294 274 328 360 342 326 322 321 162 192 287 307 335 24 91 94 96 101 97 95 101 108 112 112 108 94 74 65 57 50 47 42 40 37 29 20 9 356 353 356 2 360 296 252 241 238 239 239 237 234 231 228 228 234 240 242 242 240 237 234 233 231 230 229 229 229 230 232 232 232 231 231 231 231 231 231 229 229 230 232 233 234 235 236
112 125 158 267 249 333 4 347 334 352 13 305 295 306 317 353 36 81 88 92 101 103 103 106 109 111 107 99 89 78 67 58 48 40 36 34 29 21 11 356 346 343 334 326 333 343 330 282 252 244 243 243 242 238 235 236 240 242 241 242 241 238 236 235 233 232 231 231 229 229 230 232 232 231 230 229 229 229 229 228 228 229 230 230 231 232 233
140 174 191 208 230 341 9 355 324 348 350 339 342 346 346 352 0 52 82 90 102 108 109 109 105 101 95 88 84 78 69 61 52 44 37 32 24 15 5 351 341 337 327 313 307 310 316 313 296 274 259 251 247 245 245 246 245 243 240 240 239 238 237 236 234 233 233 232 230 229 230 231 231 229 227 226 226 227 227 227 226 227 227 227 227 228 230
211 204 193 143 136 17 23 11 333 339 4 12 16 23 16 358 353 31 75 86 98 104 106 105 99 93 88 82 75 69 64 56 49 42 34 26 18 7 356 344 331 319 309 304 297 291 294 299 296 290 284 272 261 257 256 255 251 247 245 242 239 238 237 236 234 234 233 232 231 230 229 229 229 227 224 222 222 224 225 224 224 224 223 221 222 222 222
266 312 158 135 114 59 49 46 13 359 20 28 21 23 23 8 3 37 75 86 96 101 103 101 95 89 88 83 75 69 62 54 46 39 30 22 15 4 352 340 326 312 299 292 288 284 285 287 287 285 282 277 273 271 268 263 257 251 247 243 240 239 238 236 236 234 232 231 232 231 230 228 227 225 222 219 220 222 221 220 221 220 217 213 213 214 216
222 194 228 190 124 91 50 52 38 18 28 35 21 18 25 14 7 31 69 87 95 99 99 97 92 87 83 78 71 65 58 51 43 35 27 20 13 3 353 342 330 316 299 286 280 278 278 279 280 279 275 273 273 272 271 268 264 258 250 245 241 240 238 236 235 234 233 233 232 230 228 225 223 222 221 219 219 219 220 219 218 216 214 212 210 211 216
190 159 198 151 112 103 65 60 57 33 32 41 20 9 29 27 9 16 63 91 97 98 97 95 94 88 79 71 64 57 50 43 35 28 22 17 11 5 356 342 330 318 308 296 283 275 272 271 271 271 270 269 269 268 265 262 260 258 254 249 244 241 239 237 236 235 234 234 231 228 225 222 220 219 219 218 216 217 221 223 219 213 210 211 212 214 216
171 149 144 133 110 92 76 87 98 89 70 85 106 90 82 72 31 25 90 101 101 101 98 96 94 89 82 74 67 59 52 44 36 28 20 11 4 1 359 352 340 329 322 315 305 293 283 274 268 266 265 264 262 262 263 258 252 251 253 252 248 245 242 239 237 236 235 234 231 228 224 221 220 219 220 220 218 218 220 225 226 224 220 214 211 216 218
169 198 169 162 148 116 113 118 122 129 138 146 146 132 117 112 106 105 111 107 104 102 99 94 90 88 84 79 72 67 62 55 45 33 20 8 359 357 356 351 343 337 332 327 322 316 309 300 287 275 268 264 260 257 259 257 252 249 249 250 249 246 243 241 239 236 233 230 229 228 226 223 221 220 219 219 219 218 218 221 226 229 227 221 215 214 215
184 179 167 165 152 135 147 146 138 140 150 153 140 117 108 121 145 163 128 113 107 103 97 92 87 85 84 81 76 73 70 63 52 40 27 16 9 5 358 350 345 342 338 332 328 326 325 322 315 301 284 272 265 259 257 258 256 253 251 251 250 246 242 240 239 235 232 229 228 226 225 224 221 217 213 210 211 214 214 213 215 220 225 225 220 213 208
243 150 157 169 166 154 157 153 147 147 148 142 134 121 114 135 164 157 126 111 104 100 96 91 86 83 82 80 77 75 73 66 56 46 39 33 28 21 12 7 4 359 350 340 333 329 325 324 322 317 308 295 284 275 267 261 259 257 254 251 250 249 245 241 236 231 227 224 220 216 214 214 213 212 209 204 202 204 203 202 208 217 221 218 209 200 197
283 154 152 195 193 170 160 154 151 152 148 139 132 127 131 154 164 135 112 101 96 95 93 89 86 83 80 77 74 73 70 65 58 52 49 47 43 38 34 31 25 16 4 348 328 313 309 311 314 316 312 306 299 293 286 278 271 264 256 248 243 242 240 236 230 223 215 210 208 204 201 200 202 205 204 200 196 193 189 187 195 203 204 198 189 180 179
276 263 252 226 181 165 162 160 155 155 155 147 135 129 135 147 132 106 96 91 90 89 88 86 84 81 79 78 74 70 66 63 59 53 47 46 45 42 40 38 32 24 13 356 326 294 281 283 295 306 303 297 296 296 292 286 278 267 256 247 237 229 226 226 223 215 206 202 200 198 197 202 204 200 196 193 191 187 182 178 178 178 180 180 175 167 164
274 255 239 203 161 160 170 174 161 151 155 154 140 127 122 121 112 101 91 86 86 86 84 83 83 82 82 81 79 76 69 61 55 50 43 41 42 41 36 31 27 26 21 14 6 345 299 276 281 291 290 286 291 294 289 281 275 263 249 239 229 220 218 224 223 207 194 189 187 188 202 224 223 194 179 177 179 178 175 172 168 165 168 171 167 162 162
266 232 218 205 176 159 158 160 153 144 139 137 131 121 109 105 101 92 85 81 81 81 78 75 76 77 76 76 79 83 79 70 60 53 47 42 41 40 36 32 31 27 18 14 19 25 24 2 314 294 285 282 287 293 288 282 279 269 255 243 233 221 215 223 256 260 211 184 164 146 153 179 185 172 166 169 171 167 163 161 158 155 158 165 166 165 164
252 233 219 200 173 153 143 142 143 137 122 115 114 106 96 93 86 77 72 71 72 72 69 65 64 66 66 66 68 72 76 78 73 64 57 51 48 46 41 32 29 32 32 27 25 28 31 29 20 2 334 310 306 315 319 312 301 287 269 256 248 241 233 232 251 287 277 196 156 138 139 150 157 156 157 164 166 159 155 154 152 152 160 168 170 166 162
192 191 180 161 149 143 137 128 125 120 112 110 112 107 102 98 87 75 69 67 67 67 65 62 61 62 62 61 59 56 59 69 76 77 73 64 56 54 48 23 9 28 41 39 34 32 30 24 19 19 20 11 359 352 345 336 333 339 337 322 303 284 265 241 221 216 199 153 137 130 134 143 147 142 140 146 154 155 155 156 158 163 169 171 168 164 162
134 138 140 137 134 132 126 118 116 116 113 113 114 111 107 101 90 79 72 68 66 65 64 63 63 64 66 69 71 67 62 63 66 72 77 72 65 61 56 47 42 44 43 39 35 34 33 30 25 22 22 19 13 3 348 339 336 353 6 359 333 305 291 262 201 163 144 139 133 126 125 131 135 133 133 141 151 155 155 159 164 169 170 167 165 166 169
128 123 123 124 122 120 118 116 115 113 112 114 114 109 103 97 91 84 77 72 68 68 69 67 65 66 69 77 85 83 77 75 73 70 69 69 67 64 61 58 57 54 49 45 42 37 32 31 28 21 19 21 16 359 348 343 331 323 330 318 278 267 276 267 190 156 145 140 135 127 124 127 131 135 140 147 153 156 158 162 166 168 167 167 170 173 176
130 120 117 121 121 118 116 114 110 107 107 109 108 106 101 98 94 87 80 76 73 74 74 71 68 66 66 69 77 83 86 86 82 75 69 65 63 62 62 62 61 59 56 51 44 37 33 32 28 24 23 27 19 346 327 325 319 325 333 312 278 259 249 217 183 171 163 152 142 133 132 136 140 145 151 156 158 160 165 169 168 166 167 170 173 177 180
122 119 120 125 125 121 116 112 109 106 103 100 97 95 92 90 89 86 80 77 76 74 71 68 65 65 64 64 67 73 80 81 73 65 60 58 57 57 58 59 60 60 59 54 47 41 36 32 30 30 37 53 72 92 110 315 313 319 277 277 276 272 259 234 203 180 169 162 154 144 138 140 143 147 152 158 160 163 169 173 172 169 170 174 178 181 183
113 115 114 117 119 118 115 110 106 102 98 95 93 90 87 87 89 90 89 87 83 75 70 69 71 72 71 69 67 67 68 65 59 52 48 50 54 58 63 65 64 61 58 55 50 44 38 32 28 29 37 54 76 96 114 133 154 175 212 248 263 260 247 239 232 215 189 176 168 159 149 146 150 153 156 159 163 166 169 171 172 172 176 180 181 181 181
104 110 110 111 112 112 110 107 103 99 98 97 97 97 96 97 100 102 102 99 93 84 78 77 78 77 77 77 76 73 70 65 60 57 55 55 58 63 65 65 64 61 57 54 49 43 40 38 32 29 32 37 44 52 58 53 55 197 216 237 255 253 240 231 222 213 210 202 187 176 168 161 161 162 161 162 166 168 167 168 174 180 182 181 181 182 184
100 106 106 105 105 106 106 106 105 105 104 104 105 106 107 106 107 109 108 103 95 89 83 80 78 77 78 79 79 78 76 73 69 66 63 58 55 55 52 51 50 50 49 49 46 42 43 44 41 38 40 40 39 42 42 33 26 34 192 219 243 252 244 235 219 202 199 199 193 187 184 180 175 171 169 170 174 175 173 174 178 183 185 185 188 191 192
112 111 104 101 102 105 107 108 109 110 109 108 106 104 104 106 107 107 103 97 91 88 86 84 83 82 81 79 78 75 72 71 69 67 64 60 56 54 51 49 50 51 49 46 43 40 41 42 42 46 51 51 48 45 41 32 23 16 5 327 263 239 236 239 240 224 204 195 189 188 193 195 189 179 176 179 180 177 176 179 182 185 188 190 192 192 189
95 98 98 99 101 101 100 100 102 103 105 106 104 101 101 102 100 98 95 92 90 90 90 89 87 83 80 78 76 74 71 70 69 67 66 64 62 60 58 55 54 54 51 47 43 41 39 35 32 36 43 49 50 47 41 34 26 21 19 12 283 237 222 228 238 230 209 199 197 196 197 201 197 186 182 185 184 179 177 178 181 183 183 182 182 184 184
79 82 85 88 90 91 91 91 90 88 89 92 93 92 94 95 94 93 93 93 92 92 90 87 83 80 77 75 74 73 71 71 70 68 66 64 62 60 58 54 50 48 45 42 41 42 42 41 40 38 37 38 36 34 32 31 31 29 29 24 7 299 218 210 227 227 216 209 207 203 199 200 201 196 191 191 189 186 183 179 175 175 179 179 178 180 183
71 73 77 80 82 84 88 89 87 85 83 83 84 86 88 90 90 89 89 89 90 90 88 85 83 81 79 77 76 75 74 73 72 70 67 64 62 61 60 58 55 53 49 44 40 40 43 47 48 47 46 46 47 47 46 45 46 48 44 34 24 6 311 330 237 225 217 212 210 207 203 201 200 198 197 198 198 197 197 192 183 178 179 180 175 172 173
73 76 79 82 83 85 87 86 84 83 83 84 87 89 90 89 90 89 89 91 92 92 91 88 85 82 80 79 79 77 74 72 71 69 66 64 62 61 60 60 61 61 57 52 47 45 44 45 46 46 46 48 52 55 58 58 59 61 63 61 56 49 43 57 126 182 194 191 191 201 206 205 202 198 196 200 203 201 200 203 196 179 170 168 169 170 172
74 76 78 79 81 83 84 83 82 82 83 84 86 87 87 88 90 92 94 95 96 95 92 87 82 79 78 78 77 75 72 70 70 70 68 65 62 58 57 58 60 61 59 56 53 52 51 50 50 49 47 46 47 50 55 59 61 62 64 64 62 59 58 67 92 115 115 108 107 110 138 181 194 191 183 184 193 194 188 188 189 177 165 164 171 175 175
76 76 76 77 78 81 83 83 83 83 85 87 87 86 86 87 89 90 92 93 93 90 86 80 76 74 73 73 73 71 68 66 65 67 68 67 63 58 54 53 53 54 55 55 53 51 50 51 53 55 55 54 50 48 49 52 53 55 57 59 61 62 63 64 68 70 68 69 75 82 87 96 117 135 136 140 157 171 170 169 172 173 171 174 178 178 178
78 78 78 79 78 79 82 83 83 84 86 88 88 87 88 89 89 90 90 89 87 85 82 79 76 74 72 71 71 69 65 61 60 60 62 65 64 61 56 52 49 49 50 53 52 48 44 42 44 50 56 59 59 57 55 54 54 55 57 57 58 61 62 60 56 50 45 44 51 66 83 92 95 102 113 125 140 151 156 162 169 175 182 188 189 186 183
78 79 80 80 79 80 82 84 85 86 86 85 84 84 86 88 89 89 88 87 87 85 83 82 81 79 76 74 72 70 68 66 66 65 66 69 70 66 59 53 50 46 42 43 45 43 38 33 32 35 42 50 57 61 61 62 65 68 69 69 67 65 65 63 58 51 43 38 40 47 57 75 104 123 138 171 189 181 171 172 182 192 198 203 206 203 195
75 76 76 76 77 80 83 85 84 82 81 82 84 85 85 84 84 84 83 82 83 82 81 80 80 78 76 73 70 68 67 68 69 68 66 66 66 64 57 52 49 45 42 42 44 41 36 32 30 29 29 34 43 52 55 57 60 64 68 71 73 74 74 72 68 62 60 57 53 49 51 62 105 145 169 204 217 207 191 185 193 200 201 204 208 204 196
70 69 69 70 72 74 78 80 78 76 76 80 86 88 87 84 83 83 82 82 82 81 79 78 77 74 71 69 68 66 63 62 67 69 65 58 55 54 53 50 47 43 39 41 43 41 36 32 30 29 27 27 31 37 42 44 47 52 57 61 64 67 70 72 71 66 64 64 61 56 56 67 103 148 168 192 210 209 196 193 200 202 201 203 207 205 202
68 66 64 64 63 64 66 67 67 67 69 75 83 88 89 87 86 86 87 87 88 86 84 82 80 78 76 74 72 70 67 65 68 69 64 55 50 48 44 39 36 33 31 33 36 35 32 29 28 28 28 28 29 31 31 32 33 38 44 49 52 53 55 57 59 60 63 71 75 72 71 77 94 129 157 168 174 178 184 197 208 207 204 203 204 204 204
67 65 63 63 63 62 61 61 61 60 61 67 78 88 92 91 91 92 92 92 92 91 89 87 85 83 81 80 78 77 75 72 70 66 59 52 49 47 43 38 34 30 28 27 28 27 25 23 22 23 24 25 28 29 28 26 26 26 28 33 40 45 45 47 51 56 61 69 84 99 103 107 115 129 141 142 138 145 158 168 175 181 187 190 194 198 200
67 66 67 68 69 67 64 63 62 61 61 66 78 91 99 101 100 99 98 97 97 96 94 92 89 86 84 82 80 78 76 72 68 63 58 54 51 47 42 40 38 34 30 28 27 26 24 23 23 22 21 21 24 26 27 26 25 24 23 22 24 26 29 33 36 40 43 48 58 91 129 147 159 168 170 167 164 165 169 173 177 181 186 190 195 201 205
66 66 68 70 70 68 66 63 60 59 61 66 77 91 101 105 105 101 97 96 96 94 92 91 89 86 84 82 79 76 74 71 66 64 61 59 56 53 48 43 40 37 35 33 30 28 26 25 24 25 24 24 24 24 23 23 23 24 24 24 22 18 18 21 23 26 29 33 35 40 60 145 191 201 201 197 191 188 188 191 196 200 202 202 204 206 208